USGS Flow Graphs:

Purgatoire River at Madrid,CO
Purgatoire River below Trinidad Lake


Provisional Data Disclaimer

Real time data available on this website are provisional data that have not been reviewed or edited. These data may be subject to significant change and are not citeable until reviewed and approved by Tetra Tech.


Home

From 23-Jul-2017 00:00 To 24-Jul-2017 06:35

Time Series Table

Date/Time MDT SFPR-0.1-pH SFPR-0.1-Temperature SFPR-0.1-Conductivity SFPR-0.1-Chloride PR-37.1-pH PR-37.1-Temperature PR-37.1-Conductivity PR-37.1-Chloride WET-0.3-pH WET-0.3-Temperature WET-0.3-Conductivity WET-0.3-Chloride PR-16.9-pH PR-16.9-Temperature PR-16.9-Conductivity PR-16.9-Chloride LOR-0.2-pH LOR-0.2-Temperature LOR-0.2-Conductivity LOR-0.2-Chloride PR-24.9-pH PR-24.9-Temperature PR-24.9-Conductivity PR-24.9-Chloride SAR-0.4-pH SAR-0.4-Temperature SAR-0.4-Conductivity SAR-0.4-Chloride PR-8.8-pH PR-8.8-Temperature PR-8.8-Conductivity PR-8.8-Chloride LOR-0.2-Discharge PR-16.9-Discharge PR-24.9-Discharge PR-37.1-Discharge SAR-0.4-Discharge SFPR-0.1-Discharge WET-0.3-Discharge REI-1.4-pH REI-1.4-Temperature REI-1.4-Conductivity REI-1.4-Chloride REI-1.4-Discharge PR-8.8-SAR PR-16.9-SAR PR-24.9-SAR
24-Jul-2017 06:00 - - - - - - - - - - - - 7.14 15.30 432.00 17.58 - - - - - - - - - - - - 7.47 15.93 329.00 10.58 - 108.63 - - - - - - - - - - 1.58 2.13 -
24-Jul-2017 05:45 - - - - - - - - - - - - 7.14 15.38 434.00 17.72 - - - - - - - - - - - - 7.47 16.07 329.00 10.58 - 106.28 - - - - - - - - - - 1.58 2.14 -
24-Jul-2017 05:30 - - - - - - - - - - - - 7.14 15.47 436.00 17.85 - - - - - - - - - - - - 7.47 16.18 328.00 10.51 - 106.28 - - - - - - - - - - 1.57 2.15 -
24-Jul-2017 05:15 - - - - - - - - - - - - 7.14 15.56 435.00 17.78 - - - - - - - - - - - - 7.47 16.27 328.00 10.51 - 106.28 - - - - - - - - - - 1.57 2.15 -
24-Jul-2017 05:00 - - - - - - - - - - - - 7.14 15.65 435.00 17.78 - - - - 7.79 12.22 0.00 -8.39 - - - - 7.47 16.39 329.00 10.58 - 106.28 21.93 - - - - - - - - - 1.58 2.15 -0.80
24-Jul-2017 04:45 - - - - - - - - - - - - 7.14 15.74 434.00 17.72 - - - - 7.78 12.35 0.10 -8.39 - - - - 7.47 16.50 329.00 10.58 - 106.28 21.93 - - - - - - - - - 1.58 2.14 -0.80
24-Jul-2017 04:30 - - - - - - - - - - - - 7.14 15.82 438.00 17.99 - - - - 7.75 12.58 0.00 -8.39 - - - - 7.47 16.61 329.00 10.58 - 106.28 21.93 - - - - - - - - - 1.58 2.17 -0.80
24-Jul-2017 04:15 - - - - - - - - - - - - 7.14 15.91 438.00 17.99 - - - - 7.73 12.64 0.00 -8.39 - - - - 7.47 16.69 329.00 10.58 - 106.28 21.93 - - - - - - - - - 1.58 2.17 -0.80
24-Jul-2017 04:00 - - - - - - - - - - - - 7.13 16.00 439.00 18.06 - - - - 7.71 12.74 0.00 -8.39 - - - - 7.47 16.80 329.00 10.58 - 106.28 21.93 - - - - - - - - - 1.58 2.17 -0.80
24-Jul-2017 03:45 - - - - - - - - - - - - 7.13 16.08 439.00 18.06 - - - - 7.72 12.87 0.00 -8.39 - - - - 7.47 16.88 329.00 10.58 - 106.28 21.93 - - - - - - - - - 1.58 2.17 -0.80
24-Jul-2017 03:30 - - - - - - - - - - - - 7.13 16.18 439.00 18.06 - - - - 7.71 12.99 0.00 -8.39 - - - - 7.47 17.00 328.00 10.51 - 106.28 21.93 - - - - - - - - - 1.57 2.17 -0.80
24-Jul-2017 03:15 - - - - - - - - - - - - 7.13 16.27 439.00 18.06 - - - - 7.73 13.16 0.00 -8.39 - - - - 7.47 17.11 329.00 10.58 - 106.28 21.93 - - - - - - - - - 1.58 2.17 -0.80
24-Jul-2017 03:00 - - - - - - - - - - - - 7.13 16.36 439.00 18.06 - - - - 7.75 13.41 0.10 -8.39 - - - - 7.47 17.22 329.00 10.58 - 106.28 21.93 - - - - - - - - - 1.58 2.17 -0.80
24-Jul-2017 02:45 - - - - - - - - - - - - 7.13 16.46 441.00 18.19 - - - - 7.74 13.60 0.00 -8.39 - - - - 7.48 17.33 327.00 10.44 - 106.28 21.93 - - - - - - - - - 1.56 2.19 -0.80
24-Jul-2017 02:30 - - - - - - - - - - - - 7.13 16.55 440.00 18.12 - - - - 7.72 13.72 0.00 -8.39 - - - - 7.48 17.43 326.00 10.37 - 106.28 21.21 - - - - - - - - - 1.56 2.18 -0.80
24-Jul-2017 02:15 - - - - - - - - - - - - 7.13 16.65 439.00 18.06 - - - - 7.74 13.80 0.00 -8.39 - - - - 7.48 17.54 326.00 10.37 - 106.28 21.21 - - - - - - - - - 1.56 2.17 -0.80
24-Jul-2017 02:00 - - - - - - - - - - - - 7.13 16.74 440.00 18.12 - - - - - - - - - - - - 7.48 17.72 327.00 10.44 - 106.28 - - - - - - - - - - 1.56 2.18 -
24-Jul-2017 01:45 - - - - - - - - - - - - 7.13 16.84 440.00 18.12 - - - - - - - - - - - - 7.48 17.80 328.00 10.51 - 106.28 - - - - - - - - - - 1.57 2.18 -
24-Jul-2017 01:30 - - - - - - - - - - - - 7.13 16.95 441.00 18.19 - - - - - - - - - - - - 7.48 18.03 328.00 10.51 - 106.28 - - - - - - - - - - 1.57 2.19 -
24-Jul-2017 01:15 - - - - - - - - - - - - 7.13 17.05 442.00 18.26 - - - - - - - - - - - - 7.48 18.13 327.00 10.44 - 106.28 - - - - - - - - - - 1.56 2.19 -
24-Jul-2017 01:00 - - - - - - - - - - - - 7.13 17.15 444.00 18.40 - - - - 7.65 14.63 0.00 -8.39 - - - - 7.48 18.35 327.00 10.44 - 106.28 21.21 - - - - - - - - - 1.56 2.21 -0.80
24-Jul-2017 00:45 - - - - - - - - - - - - 7.12 17.25 445.00 18.46 - - - - 7.68 14.98 0.00 -8.39 - - - - 7.48 18.54 326.00 10.37 - 106.28 21.21 - - - - - - - - - 1.56 2.21 -0.80
24-Jul-2017 00:30 - - - - - - - - - - - - 7.12 17.35 445.00 18.46 - - - - 7.67 15.08 0.00 -8.39 - - - - 7.49 18.68 326.00 10.37 - 106.28 20.50 - - - - - - - - - 1.56 2.21 -0.80
24-Jul-2017 00:15 - - - - - - - - - - - - 7.12 17.44 446.00 18.53 - - - - 7.69 15.27 0.00 -8.39 - - - - 7.49 18.82 326.00 10.37 - 106.28 21.21 - - - - - - - - - 1.56 2.22 -0.80
24-Jul-2017 00:00 - - - - - - - - - - - - 7.12 17.53 446.00 18.53 - - - - 7.69 15.47 0.00 -8.39 - - - - 7.49 18.93 326.00 10.37 - 106.28 21.21 - - - - - - - - - 1.56 2.22 -0.80
23-Jul-2017 23:45 - - - - - - - - - - - - 7.12 17.62 450.00 18.80 - - - - 7.67 15.62 0.00 -8.39 - - - - 7.49 19.09 326.00 10.37 - 106.28 20.50 - - - - - - - - - 1.56 2.25 -0.80
23-Jul-2017 23:30 - - - - - - - - - - - - 7.12 17.70 448.00 18.67 - - - - 7.61 15.71 0.00 -8.39 - - - - 7.49 19.25 325.00 10.30 - 106.28 20.50 - - - - - - - - - 1.55 2.23 -0.80
23-Jul-2017 23:15 - - - - - - - - - - - - 7.12 17.79 449.00 18.74 - - - - 7.58 15.94 0.10 -8.39 - - - - 7.49 19.33 326.00 10.37 - 106.28 21.21 - - - - - - - - - 1.56 2.24 -0.80
23-Jul-2017 23:00 - - - - - - - - - - - - 7.11 17.89 449.00 18.74 - - - - 7.50 15.94 0.00 -8.39 - - - - 7.49 19.51 325.00 10.30 - 106.28 20.50 - - - - - - - - - 1.55 2.24 -0.80
23-Jul-2017 22:45 - - - - - - - - - - - - 7.11 17.99 449.00 18.74 - - - - 7.54 16.27 0.00 -8.39 - - - - 7.49 19.63 323.00 10.17 - 106.28 20.50 - - - - - - - - - 1.54 2.24 -0.80
23-Jul-2017 22:30 - - - - - - - - - - - - 7.11 18.09 452.00 18.94 - - - - 7.49 16.45 0.00 -8.39 - - - - 7.49 19.75 323.00 10.17 - 106.28 20.50 - - - - - - - - - 1.54 2.26 -0.80
23-Jul-2017 22:15 - - - - - - - - - - - - 7.11 18.21 451.00 18.87 - - - - 7.33 16.47 0.00 -8.39 - - - - 7.49 19.87 322.00 10.10 - 106.28 20.50 - - - - - - - - - 1.53 2.25 -0.80
23-Jul-2017 22:00 - - - - - - - - - - - - 7.11 18.33 452.00 18.94 - - - - 7.20 16.62 0.00 -8.39 - - - - 7.49 20.00 323.00 10.17 - 106.28 20.50 - - - - - - - - - 1.54 2.26 -0.80
23-Jul-2017 21:45 - - - - - - - - - - - - 7.11 18.45 453.00 19.01 - - - - 7.20 16.96 0.00 -8.39 - - - - 7.48 20.14 322.00 10.10 - 108.63 20.50 - - - - - - - - - 1.53 2.26 -0.80
23-Jul-2017 21:30 - - - - - - - - - - - - 7.11 18.57 454.00 1,310.71 - - - - 7.15 17.18 0.00 -8.39 - - - - 7.48 20.26 322.00 10.10 - 108.63 19.81 - - - - - - - - - 1.53 2.27 -0.80
23-Jul-2017 21:15 - - - - - - - - - - - - 7.11 18.69 454.00 19.08 - - - - 7.09 17.44 0.00 -8.39 - - - - 7.48 20.38 322.00 10.10 - 108.63 20.50 - - - - - - - - - 1.53 2.27 -0.80
23-Jul-2017 21:00 - - - - - - - - - - - - 7.11 18.81 455.00 19.14 - - - - 7.04 17.54 0.00 -8.39 - - - - 7.48 20.49 323.00 10.17 - 108.63 21.21 - - - - - - - - - 1.54 2.28 -0.80
23-Jul-2017 20:45 - - - - - - - - - - - - 7.11 18.93 455.00 19.14 - - - - 6.89 17.91 0.00 -8.39 - - - - 7.48 20.61 323.00 10.17 - 108.63 20.50 - - - - - - - - - 1.54 2.28 -0.80
23-Jul-2017 20:30 - - - - - - - - - - - - 7.11 19.04 456.00 19.21 - - - - 6.87 18.14 0.00 -8.39 - - - - 7.48 20.73 323.00 10.17 - 111.01 20.50 - - - - - - - - - 1.54 2.28 -0.80
23-Jul-2017 20:15 - - - - - - - - - - - - 7.12 19.16 457.00 19.28 - - - - 7.07 18.38 0.00 -8.39 - - - - 7.48 20.88 322.00 10.10 - 111.01 21.21 - - - - - - - - - 1.53 2.29 -0.80
23-Jul-2017 20:00 - - - - - - - - - - - - 7.13 19.26 458.00 19.35 - - - - 7.15 18.73 0.00 -8.39 - - - - 7.47 21.06 323.00 10.17 - 113.42 21.21 - - - - - - - - - 1.54 2.30 -0.80
23-Jul-2017 19:45 - - - - - - - - - - - - 7.13 19.37 459.00 19.42 - - - - 7.27 19.26 0.00 -8.39 - - - - 7.47 21.26 323.00 10.17 - 113.42 21.21 - - - - - - - - - 1.54 2.30 -0.80
23-Jul-2017 19:30 - - - - - - - - - - - - 7.13 19.48 459.00 19.42 - - - - 7.33 19.64 0.00 -8.39 - - - - 7.47 21.49 324.00 10.24 - 115.86 21.21 - - - - - - - - - 1.54 2.30 -0.80
23-Jul-2017 19:15 - - - - - - - - - - - - 7.12 19.58 460.00 19.48 - - - - 7.97 19.90 0.00 -8.39 - - - - 7.47 21.72 324.00 10.24 - 115.86 21.21 - - - - - - - - - 1.54 2.31 -0.80
23-Jul-2017 19:00 - - - - - - - - - - - - 7.13 19.67 462.00 19.62 - - - - 8.16 20.02 0.00 -8.39 - - - - 7.46 21.94 325.00 10.30 - 115.86 21.21 - - - - - - - - - 1.55 2.32 -0.80
23-Jul-2017 18:45 - - - - - - - - - - - - 7.13 19.76 463.00 19.69 - - - - 8.08 20.17 0.00 -8.39 - - - - 7.46 22.16 325.00 10.30 - 115.86 21.93 - - - - - - - - - 1.55 2.33 -0.80
23-Jul-2017 18:30 - - - - - - - - - - - - 7.13 19.83 464.00 19.76 - - - - 8.16 20.30 0.00 -8.39 - - - - 7.46 22.34 326.00 10.37 - 115.86 21.93 - - - - - - - - - 1.56 2.34 -0.80
23-Jul-2017 18:15 - - - - - - - - - - - - 7.13 19.89 466.00 19.89 - - - - 8.16 20.58 0.00 -8.39 - - - - 7.46 22.48 327.00 10.44 - 118.33 21.21 - - - - - - - - - 1.56 2.35 -0.80
23-Jul-2017 18:00 - - - - - - - - - - - - - - - - - - - - 8.33 20.75 0.10 -8.39 - - - - 7.46 22.58 328.00 10.51 - - 21.93 - - - - - - - - - 1.57 - -0.80
23-Jul-2017 17:45 - - - - - - - - - - - - - - - - - - - - 8.06 20.95 0.00 -8.39 - - - - 7.46 22.63 329.00 10.58 - - 21.93 - - - - - - - - - 1.58 - -0.80
23-Jul-2017 17:30 - - - - - - - - - - - - - - - - - - - - 8.32 20.90 0.00 -8.39 - - - - 7.46 22.69 329.00 10.58 - - 22.67 - - - - - - - - - 1.58 - -0.80
23-Jul-2017 17:15 - - - - - - - - - - - - - - - - - - - - 8.32 21.29 0.00 -8.39 - - - - 7.46 22.81 328.00 10.51 - - 24.21 - - - - - - - - - 1.57 - -0.80
23-Jul-2017 17:00 - - - - - - - - - - - - - - - - - - - - 8.16 21.58 0.10 -8.39 - - - - 7.45 22.98 329.00 10.58 - - 25.01 - - - - - - - - - 1.58 - -0.80
23-Jul-2017 16:45 - - - - - - - - - - - - - - - - - - - - 8.06 21.75 0.00 -8.39 - - - - 7.45 23.15 330.00 10.64 - - 24.21 - - - - - - - - - 1.58 - -0.80
23-Jul-2017 16:30 - - - - - - - - - - - - - - - - - - - - 8.10 21.58 0.00 -8.39 - - - - 7.45 23.43 330.00 10.64 - - 25.01 - - - - - - - - - 1.58 - -0.80
23-Jul-2017 16:15 - - - - - - - - - - - - - - - - - - - - 8.34 21.64 0.10 -8.39 - - - - 7.45 23.63 332.00 10.78 - - 25.01 - - - - - - - - - 1.59 - -0.80
23-Jul-2017 16:00 - - - - - - - - - - - - 7.15 20.30 475.00 20.50 - - - - 8.27 22.01 0.00 -8.39 - - - - 7.45 23.75 332.00 10.78 - 120.82 25.01 - - - - - - - - - 1.59 2.41 -0.80
23-Jul-2017 15:45 - - - - - - - - - - - - 7.15 20.30 475.00 20.50 - - - - 8.21 21.96 0.10 -8.39 - - - - 7.45 23.93 333.00 10.85 - 123.35 25.01 - - - - - - - - - 1.60 2.41 -0.80
23-Jul-2017 15:30 - - - - - - - - - - - - 7.15 20.27 478.00 20.71 - - - - 8.42 22.83 0.00 -8.39 - - - - 7.45 23.98 334.00 10.92 - 123.35 25.83 - - - - - - - - - 1.61 2.43 -0.80
23-Jul-2017 15:15 - - - - - - - - - - - - 7.16 20.25 478.00 20.71 - - - - 8.91 22.57 0.00 -8.39 - - - - 7.46 23.89 334.00 10.92 - 123.35 25.83 - - - - - - - - - 1.61 2.43 -0.80
23-Jul-2017 15:00 - - - - - - - - - - - - 7.16 20.23 478.00 20.71 - - - - 8.92 21.88 0.00 -8.39 - - - - 7.46 23.68 333.00 10.85 - 123.35 25.83 - - - - - - - - - 1.60 2.43 -0.80
23-Jul-2017 14:45 - - - - - - - - - - - - 7.16 20.17 480.00 20.84 - - - - 8.95 22.04 0.00 -8.39 - - - - 7.46 23.73 333.00 10.85 - 123.35 26.67 - - - - - - - - - 1.60 2.44 -0.80
23-Jul-2017 14:30 - - - - - - - - - - - - 7.17 20.03 487.00 21.32 - - - - 9.05 21.92 0.00 -8.39 - - - - 7.47 23.60 334.00 10.92 - 123.35 26.67 - - - - - - - - - 1.61 2.49 -0.80
23-Jul-2017 14:15 - - - - - - - - - - - - 7.18 19.87 485.00 21.18 - - - - 8.82 21.59 0.00 1,310.71 - - - - 7.47 23.32 334.00 10.92 - 123.35 26.67 - - - - - - - - - 1.61 2.48 -0.80
23-Jul-2017 14:00 - - - - - - - - - - - - - - - - - - - - 8.93 21.27 0.00 -8.39 - - - - 7.47 23.02 334.00 10.92 - - 26.67 - - - - - - - - - 1.61 - -0.80
23-Jul-2017 13:45 - - - - - - - - - - - - - - - - - - - - 8.93 21.94 0.00 -8.39 - - - - 7.48 22.79 334.00 10.92 - - 27.53 - - - - - - - - - 1.61 - -0.80
23-Jul-2017 13:30 - - - - - - - - - - - - - - - - - - - - 8.92 21.54 0.00 -8.39 - - - - 7.48 22.48 334.00 10.92 - - 27.53 - - - - - - - - - 1.61 - -0.80
23-Jul-2017 13:15 - - - - - - - - - - - - - - - - - - - - 8.88 22.39 0.00 -8.39 - - - - 7.49 22.15 335.00 10.98 - - 27.53 - - - - - - - - - 1.61 - -0.80
23-Jul-2017 13:00 - - - - - - - - - - - - 7.19 18.53 481.00 20.91 - - - - 8.54 21.12 0.00 -8.39 - - - - 7.49 21.78 334.00 10.92 - 125.91 27.53 - - - - - - - - - 1.61 2.45 -0.80
23-Jul-2017 12:45 - - - - - - - - - - - - 7.20 18.16 480.00 20.84 - - - - 8.35 19.79 0.00 -8.39 - - - - 7.50 21.44 334.00 10.92 - 125.91 27.53 - - - - - - - - - 1.61 2.44 -0.80
23-Jul-2017 12:30 - - - - - - - - - - - - 7.20 17.83 479.00 20.78 - - - - 8.38 19.11 0.00 -8.39 - - - - 7.51 21.07 333.00 10.85 - 125.91 28.40 - - - - - - - - - 1.60 2.44 -0.80
23-Jul-2017 12:15 - - - - - - - - - - - - 7.20 17.49 478.00 20.71 - - - - 8.31 18.89 0.00 -8.39 - - - - 7.51 20.65 333.00 10.85 - 125.91 28.40 - - - - - - - - - 1.60 2.43 -0.80
23-Jul-2017 12:00 - - - - - - - - - - - - 7.20 17.16 475.00 20.50 - - - - 8.28 18.82 0.00 -8.39 - - - - 7.52 20.31 333.00 10.85 - 125.91 28.40 - - - - - - - - - 1.60 2.41 -0.80
23-Jul-2017 11:45 - - - - - - - - - - - - 7.20 16.87 469.00 20.10 - - - - 8.18 18.49 0.00 -8.39 - - - - 7.52 19.91 330.00 10.64 - 125.91 28.40 - - - - - - - - - 1.58 2.37 -0.80
23-Jul-2017 11:30 - - - - - - - - - - - - 7.20 16.64 464.00 19.76 - - - - 8.09 18.47 0.00 -8.39 - - - - 7.52 19.54 329.00 10.58 - 125.91 28.40 - - - - - - - - - 1.58 2.34 -0.80
23-Jul-2017 11:15 - - - - - - - - - - - - 7.20 16.47 461.00 19.55 - - - - 8.09 18.25 0.00 -8.39 - - - - 7.53 19.17 329.00 10.58 - 125.91 28.40 - - - - - - - - - 1.58 2.32 -0.80
23-Jul-2017 11:00 - - - - - - - - - - - - 7.20 16.31 460.00 19.48 - - - - 8.15 18.11 0.00 -8.39 - - - - 7.53 18.81 328.00 10.51 - 125.91 28.40 - - - - - - - - - 1.57 2.31 -0.80
23-Jul-2017 10:45 - - - - - - - - - - - - 7.20 16.18 457.00 19.28 - - - - 8.30 17.88 0.00 -8.39 - - - - 7.54 18.45 327.00 10.44 - 125.91 28.40 - - - - - - - - - 1.56 2.29 -0.80
23-Jul-2017 10:30 - - - - - - - - - - - - 7.20 16.07 455.00 19.14 - - - - 8.35 18.02 0.00 -8.39 - - - - 7.54 18.11 327.00 10.44 - 128.50 28.40 - - - - - - - - - 1.56 2.28 -0.80
23-Jul-2017 10:15 - - - - - - - - - - - - 7.19 15.98 453.00 19.01 - - - - 8.42 17.67 0.00 -8.39 - - - - 7.54 17.77 327.00 10.44 - 125.91 29.30 - - - - - - - - - 1.56 2.26 -0.80
23-Jul-2017 10:00 - - - - - - - - - - - - 7.19 15.91 451.00 18.87 - - - - 8.50 17.80 0.00 -8.39 - - - - 7.54 17.47 325.00 10.30 - 125.91 28.40 - - - - - - - - - 1.55 2.25 -0.80
23-Jul-2017 09:45 - - - - - - - - - - - - 7.19 15.87 449.00 18.74 - - - - 8.52 17.56 0.00 -8.39 - - - - 7.54 17.18 325.00 10.30 - 125.91 28.40 - - - - - - - - - 1.55 2.24 -0.80
23-Jul-2017 09:30 - - - - - - - - - - - - 7.19 15.83 448.00 18.67 - - - - 8.51 17.60 0.00 -8.39 - - - - 7.54 16.93 324.00 10.24 - 125.91 28.40 - - - - - - - - - 1.54 2.23 -0.80
23-Jul-2017 09:15 - - - - - - - - - - - - 7.19 15.80 445.00 18.46 - - - - 8.52 18.02 0.00 -8.39 - - - - 7.55 16.70 323.00 10.17 - 128.50 29.30 - - - - - - - - - 1.54 2.21 -0.80
23-Jul-2017 09:00 - - - - - - - - - - - - 7.19 15.79 446.00 18.53 - - - - 8.52 17.25 0.00 -8.39 - - - - 7.54 16.49 322.00 10.10 - 125.91 29.30 - - - - - - - - - 1.53 2.22 -0.80
23-Jul-2017 08:45 - - - - - - - - - - - - 7.18 15.79 445.00 18.46 - - - - 8.52 18.29 0.10 -8.39 - - - - 7.54 16.32 321.00 10.03 - 125.91 28.40 - - - - - - - - - 1.53 2.21 -0.80
23-Jul-2017 08:30 - - - - - - - - - - - - 7.18 15.79 443.00 18.33 - - - - 8.53 18.29 0.30 -8.38 - - - - 7.54 16.18 321.00 10.03 - 125.91 28.40 - - - - - - - - - 1.53 2.20 -0.80
23-Jul-2017 08:15 - - - - - - - - - - - - 7.18 15.81 443.00 18.33 - - - - 8.52 17.67 0.40 -8.37 - - - - 7.54 16.08 319.00 9.90 - 125.91 29.30 - - - - - - - - - 1.51 2.20 -0.80
23-Jul-2017 08:00 - - - - - - - - - - - - 7.18 15.83 443.00 18.33 - - - - - - - - - - - - 7.53 16.00 320.00 9.96 - 128.50 - - - - - - - - - - 1.52 2.20 -
23-Jul-2017 07:45 - - - - - - - - - - - - 7.19 15.86 443.00 18.33 - - - - - - - - - - - - 7.53 15.93 319.00 9.90 - 125.91 - - - - - - - - - - 1.51 2.20 -
23-Jul-2017 07:30 - - - - - - - - - - - - 7.19 15.90 443.00 18.33 - - - - - - - - - - - - 7.53 15.91 318.00 9.83 - 125.91 - - - - - - - - - - 1.51 2.20 -
23-Jul-2017 07:15 - - - - - - - - - - - - 7.20 15.94 444.00 18.40 - - - - - - - - - - - - 7.53 15.92 317.00 9.76 - 128.50 - - - - - - - - - - 1.50 2.21 -
23-Jul-2017 07:00 - - - - - - - - - - - - 7.21 15.98 443.00 18.33 - - - - 8.46 13.25 0.60 -8.36 - - - - 7.53 15.95 316.00 9.69 - 128.50 29.30 - - - - - - - - - 1.49 2.20 -0.80
23-Jul-2017 06:45 - - - - - - - - - - - - 7.21 16.03 443.00 18.33 - - - - 8.44 12.71 0.70 -8.36 - - - - 7.53 16.00 316.00 9.69 - 128.50 29.30 - - - - - - - - - 1.49 2.20 -0.79
23-Jul-2017 06:30 - - - - - - - - - - - - 7.19 16.09 444.00 18.40 - - - - 8.44 12.88 0.60 -8.36 - - - - 7.53 16.07 317.00 9.76 - 128.50 29.30 - - - - - - - - - 1.50 2.21 -0.80
23-Jul-2017 06:15 - - - - - - - - - - - - 7.17 16.14 444.00 18.40 - - - - 8.44 12.87 0.60 -8.36 - - - - 7.53 16.16 317.00 9.76 - 128.50 29.30 - - - - - - - - - 1.50 2.21 -0.80
23-Jul-2017 06:00 - - - - - - - - - - - - 7.17 16.19 444.00 18.40 - - - - 8.43 13.03 0.60 -8.36 - - - - 7.52 16.24 317.00 9.76 - 128.50 30.22 - - - - - - - - - 1.50 2.21 -0.80
23-Jul-2017 05:45 - - - - - - - - - - - - 7.18 16.24 445.00 18.46 - - - - 8.39 13.16 0.60 -8.36 - - - - 7.52 16.33 318.00 9.83 - 131.12 30.22 - - - - - - - - - 1.51 2.21 -0.80
23-Jul-2017 05:30 - - - - - - - - - - - - 7.17 16.28 445.00 18.46 - - - - 8.39 13.31 0.60 -8.36 - - - - 7.52 16.41 317.00 9.76 - 131.12 30.22 - - - - - - - - - 1.50 2.21 -0.80
23-Jul-2017 05:15 - - - - - - - - - - - - 7.17 16.33 446.00 18.53 - - - - 8.43 13.43 0.70 -8.36 - - - - 7.52 16.50 319.00 9.90 - 131.12 30.22 - - - - - - - - - 1.51 2.22 -0.79
23-Jul-2017 05:00 - - - - - - - - - - - - 7.17 16.37 446.00 18.53 - - - - 8.38 13.65 0.60 -8.36 - - - - 7.52 16.58 318.00 9.83 - 131.12 30.22 - - - - - - - - - 1.51 2.22 -0.80
23-Jul-2017 04:45 - - - - - - - - - - - - 7.17 16.42 447.00 18.60 - - - - 8.38 13.66 0.60 -8.36 - - - - 7.52 16.66 319.00 9.90 - 131.12 30.22 - - - - - - - - - 1.51 2.23 -0.80
23-Jul-2017 04:30 - - - - - - - - - - - - 7.17 16.47 447.00 18.60 - - - - 8.38 13.75 0.60 -8.36 - - - - 7.52 16.75 318.00 9.83 - 131.12 31.16 - - - - - - - - - 1.51 2.23 -0.80
23-Jul-2017 04:15 - - - - - - - - - - - - 7.17 16.51 447.00 18.60 - - - - 8.38 13.81 0.60 -8.36 - - - - 7.51 16.84 318.00 9.83 - 133.76 31.16 - - - - - - - - - 1.51 2.23 -0.80
23-Jul-2017 04:00 - - - - - - - - - - - - 7.17 16.56 448.00 18.67 - - - - 8.42 13.89 0.60 -8.36 - - - - 7.51 16.93 318.00 9.83 - 133.76 31.16 - - - - - - - - - 1.51 2.23 -0.80
23-Jul-2017 03:45 - - - - - - - - - - - - 7.17 16.61 449.00 18.74 - - - - 8.39 13.97 0.60 -8.36 - - - - 7.51 17.01 318.00 9.83 - 133.76 31.16 - - - - - - - - - 1.51 2.24 -0.80
23-Jul-2017 03:30 - - - - - - - - - - - - 7.17 16.65 450.00 18.80 - - - - 8.39 14.01 0.50 -8.37 - - - - 7.51 17.10 318.00 9.83 - 136.44 31.16 - - - - - - - - - 1.51 2.25 -0.80
23-Jul-2017 03:15 - - - - - - - - - - - - 7.18 16.70 450.00 18.80 - - - - 8.39 14.04 0.60 -8.36 - - - - 7.51 17.18 320.00 9.96 - 136.44 32.13 - - - - - - - - - 1.52 2.25 -0.80
23-Jul-2017 03:00 - - - - - - - - - - - - 7.17 16.75 451.00 18.87 - - - - 8.40 14.16 0.60 -8.36 - - - - 7.51 17.27 319.00 9.90 - 139.15 32.13 - - - - - - - - - 1.51 2.25 -0.80
23-Jul-2017 02:45 - - - - - - - - - - - - 7.17 16.80 451.00 18.87 - - - - 8.41 14.16 0.60 -8.36 - - - - 7.51 17.36 320.00 9.96 - 139.15 32.13 - - - - - - - - - 1.52 2.25 -0.80
23-Jul-2017 02:30 - - - - - - - - - - - - 7.17 16.86 452.00 18.94 - - - - 8.42 14.22 0.60 -8.36 - - - - 7.50 17.46 320.00 9.96 - 141.89 33.11 - - - - - - - - - 1.52 2.26 -0.80
23-Jul-2017 02:15 - - - - - - - - - - - - 7.17 16.91 454.00 19.08 - - - - 8.42 14.36 0.70 -8.36 - - - - 7.51 17.54 320.00 9.96 - 141.89 33.11 - - - - - - - - - 1.52 2.27 -0.79
23-Jul-2017 02:00 - - - - - - - - - - - - 7.17 16.97 452.00 18.94 - - - - 8.42 14.49 0.60 -8.36 - - - - 7.51 17.63 320.00 9.96 - 141.89 33.11 - - - - - - - - - 1.52 2.26 -0.80
23-Jul-2017 01:45 - - - - - - - - - - - - 7.17 17.02 453.00 19.01 - - - - 8.43 14.51 0.60 -8.36 - - - - 7.51 17.71 320.00 9.96 - 141.89 34.12 - - - - - - - - - 1.52 2.26 -0.80
23-Jul-2017 01:30 - - - - - - - - - - - - 7.16 17.07 452.00 18.94 - - - - 8.43 14.52 0.60 -8.36 - - - - 7.51 17.79 320.00 9.96 - 144.66 34.12 - - - - - - - - - 1.52 2.26 -0.80
23-Jul-2017 01:15 - - - - - - - - - - - - 7.16 17.13 453.00 19.01 - - - - 8.43 14.64 0.70 -8.36 - - - - 7.51 17.87 320.00 9.96 - 144.66 35.15 - - - - - - - - - 1.52 2.26 -0.79
23-Jul-2017 01:00 - - - - - - - - - - - - 7.16 17.18 453.00 19.01 - - - - 8.43 14.79 0.60 -8.36 - - - - 7.50 17.94 320.00 9.96 - 144.66 36.20 - - - - - - - - - 1.52 2.26 -0.80
23-Jul-2017 00:45 - - - - - - - - - - - - 7.16 17.24 454.00 19.08 - - - - 8.42 14.93 0.60 -8.36 - - - - 7.50 18.01 321.00 10.03 - 144.66 37.28 - - - - - - - - - 1.53 2.27 -0.80
23-Jul-2017 00:30 - - - - - - - - - - - - 7.16 17.30 454.00 19.08 - - - - 8.42 14.98 0.60 -8.36 - - - - 7.50 18.08 320.00 9.96 - 144.66 37.28 - - - - - - - - - 1.52 2.27 -0.80
23-Jul-2017 00:15 - - - - - - - - - - - - 7.16 17.37 454.00 19.08 - - - - 8.43 15.01 0.90 -8.35 - - - - 7.50 18.15 320.00 9.96 - 144.66 38.38 - - - - - - - - - 1.52 2.27 -0.79
23-Jul-2017 00:00 - - - - - - - - - - - - 7.16 17.44 455.00 19.14 - - - - 8.42 15.06 0.90 -8.35 - - - - 7.50 18.23 319.00 9.90 - 144.66 39.50 - - - - - - - - - 1.51 2.28 -0.79